Tracking 35051 objects as of 17-Aug-2026
HD Live streaming from Space Station
objects crossing your sky now

STARLINK-38178


10-day predictions
STARLINK-38178 is classified as:


NORAD ID: 100201
Int'l Code: 2026-175Y
Launch date: August 1, 2026
Source: United States (US)
Launch site: AIR FORCE WESTERN TEST RANGE (AFWTR)
Your satellite tracking list
Your tracking list is empty




NASA's NSSDC Master Catalog

Two Line Element Set (TLE):
1 A0201U 26175Y   26229.62957671  .00130162  00000-0  85911-3 0  9998
2 A0201  97.2842  70.3864 0001256  79.9592 280.1815 15.75222023  3849
Source of the keplerian elements: AFSPC